Location: Unspecified
(43.3830°N, 0.0000°E)
Time: 08:48:28
(UTC+00:00)

Vanguard 2 - Pass Details

Date: 18 June 2019
Orbit: 553 x 2938 km, 32.9° (Epoch: 16 July)

Event Time Altitude Azimuth Distance (km) Brightness Sun altitude
Rises 10:54:17 0° 249° (WSW) 3,911 11.1 65.7°
Reaches altitude 10° 10:56:40 10° 243° (WSW) 3,204 10.8 66.0°
Maximum altitude 11:04:34 47° 172° (S) 2,171 11.3 66.9°
Drops below altitude 10° 11:17:20 10° 105° (ESE) 5,076 12.1 68.1°
Sets 11:22:11 0° 101° (ESE) 6,377 12.4 68.5°
